[[[{"header":{"parameterUnit":"kt","parameterCategory":2,"dx":1,"dy":1,"la1":30.253999710083008,"la2":30.299108505249023,"lo1":-89.0895004272461,"lo2":-89.04439544677734,"nx":28,"ny":28,"refTime":"2022-10-13T21:00:00:Z","depth":0,"parameterNumber":1,"parameterNumberName":"U-component_of_WINDS"},"data":[-1.3051,-1.3103,-1.3103,-1.3164,-1.3174,-1.3216,-1.3232,-1.3252,-1.3268,-1.332,-1.335,-1.3356,-1.3375,-1.3412,-1.3446,-1.3449,-1.3465,-1.3482,-1.3483,-1.3399,-1.3388,-1.3377,-1.3364,-1.3485,-1.3485,-1.3572,-1.3573,-1.3573,-1.2989,-1.2999,-1.303,-1.3061,-1.3089,-1.3071,-1.3095,-1.312,-1.3159,-1.3179,-1.3208,-1.3255,-1.3292,-1.3304,-1.3341,-1.3368,-1.3363,-1.3378,-1.3378,-1.3381,-1.329,-1.3277,-1.3381,-1.3381,-1.3381,-1.3381,-1.3381,-1.3381,-1.2876,-1.2908,-1.2926,-1.2961,-1.2976,-1.2997,-1.3028,-1.3035,-1.3067,-1.3104,-1.3098,-1.3143,-1.3165,-1.321,-1.3225,-1.3262,-1.3246,-1.3263,-1.3268,-1.3274,-1.328,-1.3158,-1.3267,-1.3267,-1.3267,-1.3267,-1.3266,0,-1.2795,-1.2793,-1.2823,-1.2853,-1.2879,-1.2903,-1.2925,-1.2944,-1.2941,-1.2968,-1.3008,-1.3031,-1.3077,-1.3116,-1.3151,-1.3164,-1.3152,-1.315,-1.3163,-1.3168,-1.3167,-1.3171,-1.3025,-1.3148,-1.3147,-1.3146,-1.3146,-1.3145,-1.2685,-1.272,-1.274,-1.2761,-1.2773,-1.2808,-1.2829,-1.2824,-1.2847,-1.2875,-1.2904,-1.2941,-1.2972,-1.3036,-1.3047,-1.3083,-1.3078,-1.3125,-1.3084,-1.3086,-1.3082,-1.3081,-1.3086,-1.3134,-1.3136,-1.3137,-1.3138,0,-1.2623,-1.2623,-1.2678,-1.2694,-1.27,-1.2738,-1.2753,-1.2785,-1.2788,-1.2833,-1.2843,-1.285,-1.289,-1.2892,-1.2939,-1.294,-1.3007,-1.3,-1.3,-1.3,-1.3044,-1.3041,-1.3183,-1.3202,-1.3074,-1.3075,-1.3076,0,-1.253,-1.2578,-1.2575,-1.2608,-1.266,-1.2653,-1.2707,-1.2715,-1.2733,-1.2768,-1.2752,-1.2786,-1.2784,-1.2819,-1.2819,-1.2875,-1.2883,-1.2888,-1.2888,-1.2891,-1.2891,-1.2907,-1.2902,-1.2884,-1.2883,-1.2882,-1.2882,0,-1.2437,-1.249,-1.2542,-1.2554,-1.2577,-1.2602,-1.2613,-1.2633,-1.2654,-1.2682,-1.2697,-1.273,-1.2749,-1.2776,-1.2777,-1.2749,-1.2844,-1.2806,-1.2849,-1.285,-1.2873,-1.2872,-1.2994,-1.2881,-1.2881,-1.288,-1.288,0,-1.2363,-1.2389,-1.2464,-1.2483,-1.2497,-1.2532,-1.2564,-1.2593,-1.2616,-1.2618,-1.264,-1.2632,-1.2678,-1.264,-1.2705,-1.2669,-1.2689,-1.2697,-1.27,-1.2708,-1.2667,-1.2738,-1.2851,-1.2865,-1.2711,-1.2709,-1.2708,0,-1.2257,-1.2332,-1.2326,-1.2398,-1.2433,-1.2414,-1.2452,-1.2472,-1.2478,-1.251,-1.2517,-1.2555,-1.2527,-1.2539,-1.257,-1.2581,-1.2628,-1.2574,-1.2625,-1.2627,-1.2622,-1.2725,-1.2743,-1.2825,-1.269,-1.2692,-1.2693,0,-1.2175,-1.2201,-1.2214,-1.2229,-1.2253,-1.2282,-1.2326,-1.236,-1.2382,-1.2406,-1.2444,-1.2495,-1.2477,-1.2498,-1.2494,-1.2527,-1.2596,-1.2504,-1.2504,-1.2523,-1.268,-1.2697,-1.271,-1.2587,-1.2589,-1.2591,-1.2679,0,-1.2069,-1.2106,-1.214,-1.2172,-1.2195,-1.2239,-1.224,-1.2264,-1.2258,-1.2264,-1.2319,-1.2337,-1.2374,-1.2389,-1.2384,-1.2457,-1.2446,-1.2427,-1.2393,-1.2459,-1.2489,-1.25,-1.2349,-1.2348,-1.2347,-1.2346,0,0,-1.197,-1.2023,-1.2015,-1.2057,-1.2076,-1.2055,-1.2103,-1.2119,-1.2153,-1.2168,-1.2148,-1.2224,-1.224,-1.2308,-1.2328,-1.2342,-1.2357,-1.2334,-1.2427,-1.2436,-1.2444,-1.2476,-1.2488,-1.2345,-1.2345,-1.2344,-1.2344,0,-1.1932,-1.1944,-1.199,-1.2006,-1.2029,-1.2032,-1.2043,-1.2064,-1.207,-1.2123,-1.2108,-1.2141,-1.2202,-1.2221,-1.224,-1.2324,-1.2313,-1.2335,-1.2381,-1.2418,-1.2428,-1.2437,-1.247,-1.2482,-1.2342,-1.2342,-1.2342,0,-1.1854,-1.1867,-1.1889,-1.1929,-1.1945,-1.1981,-1.1945,-1.1985,-1.2013,-1.1991,-1.2045,-1.2055,-1.2082,-1.2144,-1.2173,-1.2156,-1.2273,-1.2236,-1.2241,-1.2245,-1.2282,-1.2294,-1.2305,-1.2164,-1.2163,-1.2163,0,0,-1.1821,-1.1855,-1.1869,-1.1921,-1.1932,-1.1937,-1.1957,-1.1953,-1.1975,-1.1984,-1.1998,-1.2022,-1.2057,-1.2081,-1.2114,-1.2182,-1.2189,-1.2213,-1.2222,-1.2229,-1.2237,-1.2275,-1.2287,-1.216,-1.216,-1.216,0,0,-1.1806,-1.1824,-1.1813,-1.1874,-1.1894,-1.1913,-1.1946,-1.1934,-1.1964,-1.1959,-1.1957,-1.1963,-1.2021,-1.2033,-1.2,-1.2103,-1.2069,-1.2077,-1.2093,-1.2104,-1.2112,-1.211,-1.1968,0,0,0,0,0,-1.1768,-1.1821,-1.1811,-1.1821,-1.1873,-1.1918,-1.1925,-1.1923,-1.1899,-1.1925,-1.1935,-1.192,-1.2015,-1.1986,-1.1997,-1.2035,-1.213,-1.2135,-1.214,-1.2178,-1.2189,-1.2198,0,0,0,0,0,0,-1.1772,-1.1785,-1.181,-1.1831,-1.1842,-1.1916,-1.1875,-1.1876,-1.1896,-1.1892,-1.1918,-1.1921,-1.1921,-1.198,-1.199,-1.2026,-1.1965,-1.2132,-1.2136,-1.2141,-1.2182,-1.2191,-1.2198,0,0,0,0,0,-1.1776,-1.1786,-1.1869,-1.183,-1.184,-1.1849,-1.1873,-1.1874,-1.1889,-1.1904,-1.1906,-1.1885,-1.1922,-1.193,-1.1986,-1.2021,-1.1958,-1.1961,-1.2135,-1.2138,-1.2142,-1.2186,0,0,0,0,0,0,-1.1778,-1.1787,-1.1871,-1.1874,-1.1809,-1.1845,-1.1851,-1.1871,-1.19,-1.1902,-1.1871,-1.1868,-1.1923,-1.193,-1.1936,-1.202,-1.1952,-1.1956,-1.1958,-1.2138,-1.214,-1.2143,0,0,0,0,0,0,-1.1782,-1.179,-1.1872,-1.1847,-1.1847,-1.1841,-1.1846,-1.1893,-1.1901,-1.1865,-1.1863,-1.1869,-1.1914,-1.1929,-1.1934,-1.2008,-1.1947,-1.1951,-1.1954,-1.1955,-1.214,-1.2142,0,0,0,0,0,0,-1.1785,-1.1792,-1.1846,-1.1846,-1.1846,-1.188,-1.1883,-1.1937,-1.1876,-1.1864,-1.1871,-1.1869,-1.1914,-1.1919,-1.1933,-1.2005,-1.2007,-1.1947,-1.195,-1.1952,-1.1953,0,0,0,0,0,0,0,-1.1788,-1.1741,-1.1852,-1.1845,-1.1845,-1.1902,-1.1903,-1.1904,-1.1876,-1.1874,-1.1872,-1.187,-1.1926,-1.193,-1.1934,-1.2002,0,0,-1.1947,-1.1949,0,0,0,0,0,0,0,0,-1.1738,-1.174,-1.1852,-1.1853,-1.1854,-1.1902,-1.1903,-1.1904,-1.1876,-1.1874,-1.1872,-1.1871,-1.1927,-1.193,-1.1934,0,0,0,0,0,0,0,0,0,0,0,0,0,0,0,-1.1852,-1.1853,0,-1.1902,-1.1903,-1.1903,-1.1875,-1.1874,-1.1873,-1.1871,-1.1928,-1.1931,-1.1933,0,0,0,0,0,0,0,0,0,0,0,0,0,0,0,0,0,0,0,0,0,0,0,0,0,0,0,0,0,0,0,0,0,0,0,0,0,0,0,0,0,0,0,0,0,0,0,0,0,0,0,0,0,0,0,0,0,0,0,0,0,0,0,0,0,0,0,0,0]}],[{"header":{"parameterUnit":"kt","parameterCategory":2,"dx":1,"dy":1,"la1":30.253999710083008,"la2":30.299108505249023,"lo1":-89.0895004272461,"lo2":-89.04439544677734,"nx":28,"ny":28,"refTime":"2022-10-13T21:00:00:Z","depth":0,"parameterNumber":2,"parameterNumberName":"V-component_of_WINDS"},"data":[2.457,2.4542,2.4513,2.4467,2.4432,2.4395,2.4372,2.4338,2.4304,2.4253,2.4218,2.4184,2.4136,2.4085,2.4044,2.4029,2.4013,2.4024,2.4004,2.3986,2.3982,2.3977,2.3983,2.4021,2.4021,2.4027,2.4027,2.4027,2.4555,2.4521,2.4489,2.4438,2.4409,2.4381,2.4337,2.4314,2.4281,2.4239,2.4203,2.4156,2.4114,2.4061,2.4015,2.3998,2.3981,2.3987,2.3987,2.398,2.3959,2.3966,2.4001,2.4001,2.4001,2.4001,2.4001,2.4001,2.4519,2.4504,2.4457,2.4422,2.4388,2.4353,2.4333,2.4293,2.426,2.4211,2.4182,2.4142,2.4093,2.4023,2.3992,2.3958,2.3946,2.3943,2.3942,2.3941,2.3945,2.3937,2.3949,2.3949,2.3949,2.3948,2.3948,0,2.4484,2.4461,2.4429,2.4388,2.4361,2.4326,2.4288,2.4275,2.4215,2.419,2.415,2.4122,2.4066,2.4024,2.3975,2.3942,2.3909,2.3903,2.39,2.3914,2.3931,2.3919,2.3886,2.3903,2.3903,2.3902,2.3902,2.3902,2.4445,2.4432,2.4369,2.435,2.4323,2.4293,2.4269,2.4218,2.4194,2.414,2.4128,2.4086,2.405,2.399,2.3942,2.3899,2.3883,2.3892,2.3876,2.3889,2.388,2.3881,2.3878,2.3896,2.3897,2.3898,2.3898,0,2.4425,2.4379,2.4349,2.4288,2.4272,2.426,2.4207,2.4189,2.4153,2.4122,2.4112,2.4054,2.4016,2.3966,2.3913,2.3887,2.3861,2.3847,2.3877,2.3871,2.3873,2.3873,2.3891,2.389,2.3851,2.3852,2.3852,0,2.4373,2.4357,2.4289,2.4275,2.4255,2.4204,2.4185,2.4153,2.4112,2.4087,2.4043,2.4021,2.3962,2.3931,2.3895,2.3864,2.3855,2.3833,2.3824,2.3837,2.3839,2.3823,2.382,2.3805,2.3805,2.3805,2.3804,0,2.4346,2.4292,2.4268,2.4248,2.4183,2.4172,2.4144,2.4098,2.4075,2.4037,2.4021,2.398,2.3958,2.3925,2.3879,2.387,2.3842,2.3819,2.3819,2.382,2.3816,2.3817,2.3846,2.3804,2.3804,2.3804,2.3804,0,2.4296,2.4262,2.4235,2.4178,2.4166,2.4151,2.4108,2.4083,2.4038,2.4014,2.3984,2.3949,2.3921,2.3902,2.3861,2.3862,2.3841,2.3819,2.3818,2.3812,2.3792,2.3814,2.3848,2.3849,2.3806,2.3806,2.3806,0,2.4277,2.4238,2.4196,2.4171,2.4146,2.4099,2.408,2.4042,2.401,2.3982,2.3945,2.3915,2.3891,2.3874,2.3861,2.3821,2.382,2.382,2.3777,2.3776,2.3789,2.382,2.3838,2.3846,2.3805,2.3805,2.3805,0,2.4256,2.4179,2.4178,2.4153,2.4097,2.4077,2.4056,2.4015,2.3999,2.3963,2.3942,2.39,2.3878,2.3853,2.3821,2.3809,2.3819,2.3789,2.3787,2.3794,2.3802,2.3818,2.382,2.3799,2.3799,2.3799,2.3805,0,2.4188,2.4165,2.416,2.411,2.4087,2.407,2.402,2.4002,2.3974,2.394,2.391,2.3868,2.3827,2.3817,2.379,2.378,2.3774,2.3753,2.3731,2.3753,2.3753,2.3753,2.3734,2.3733,2.3732,2.3732,0,0,2.418,2.4145,2.4101,2.408,2.4058,2.4011,2.3997,2.3969,2.3916,2.3901,2.3888,2.3823,2.3789,2.3758,2.3761,2.3745,2.3738,2.3734,2.3743,2.3745,2.3746,2.3747,2.3749,2.373,2.373,2.373,2.3729,0,2.4145,2.4115,2.4104,2.4074,2.4028,2.3994,2.3991,2.3938,2.3916,2.3889,2.3849,2.3825,2.3776,2.3745,2.3722,2.3736,2.3707,2.3727,2.375,2.3737,2.374,2.3742,2.3744,2.3746,2.3727,2.3728,2.3728,0,2.4115,2.4077,2.4067,2.4017,2.3987,2.3964,2.3928,2.3906,2.3888,2.3837,2.3811,2.3781,2.3736,2.3715,2.3703,2.3691,2.3682,2.3677,2.3681,2.3678,2.3663,2.3666,2.3669,2.3631,2.3631,2.3631,0,0,2.4092,2.4071,2.4014,2.4006,2.3989,2.394,2.3923,2.3894,2.3856,2.3841,2.3803,2.3766,2.3736,2.3718,2.3687,2.3672,2.3657,2.3668,2.3672,2.3676,2.3676,2.3661,2.3665,2.3631,2.3631,2.3631,0,0,2.408,2.4015,2.3994,2.3979,2.3944,2.3888,2.3884,2.3856,2.3825,2.3822,2.377,2.3759,2.3738,2.3711,2.371,2.3678,2.3658,2.3657,2.3697,2.3702,2.3707,2.3713,2.3668,0,0,0,0,0,2.4021,2.4023,2.4005,2.3995,2.3933,2.3898,2.389,2.3848,2.3834,2.3831,2.3794,2.3766,2.3699,2.3697,2.3687,2.3689,2.3624,2.3625,2.3626,2.3674,2.368,2.3685,0,0,0,0,0,0,2.4017,2.4005,2.4004,2.3949,2.3935,2.3898,2.3864,2.3852,2.3833,2.3828,2.3774,2.3764,2.3727,2.3699,2.3691,2.3693,2.367,2.3625,2.3626,2.3627,2.3676,2.3681,2.3685,0,0,0,0,0,2.4013,2.4004,2.3915,2.3949,2.3936,2.3881,2.3863,2.3854,2.3838,2.3782,2.3771,2.3808,2.3729,2.3719,2.3694,2.3698,2.3675,2.3673,2.3625,2.3626,2.3627,2.3679,0,0,0,0,0,0,2.4011,2.3994,2.3912,2.3906,2.3946,2.3882,2.3871,2.3855,2.3792,2.3782,2.3814,2.3811,2.373,2.3722,2.3715,2.3702,2.368,2.3677,2.3675,2.3626,2.3626,2.3627,0,0,0,0,0,0,2.3999,2.399,2.3909,2.3907,2.3901,2.3884,2.3874,2.3847,2.3792,2.3828,2.3823,2.3813,2.374,2.3724,2.3718,2.3678,2.3683,2.368,2.3678,2.3677,2.3626,2.3627,0,0,0,0,0,0,2.3994,2.3987,2.3908,2.3904,2.3898,2.3834,2.3859,2.3797,2.3792,2.3831,2.379,2.3789,2.3743,2.3736,2.3721,2.3683,2.3679,2.3683,2.3681,2.368,2.3679,0,0,0,0,0,0,0,2.3991,2.4053,2.3944,2.3901,2.3896,2.3856,2.3854,2.3853,2.3791,2.3791,2.379,2.3789,2.3698,2.3695,2.3692,2.3688,0,0,2.3683,2.3682,0,0,0,0,0,0,0,0,2.4055,2.4053,2.3944,2.3943,2.3942,2.3855,2.3854,2.3853,2.3791,2.3791,2.379,2.379,2.3698,2.3695,2.3693,0,0,0,0,0,0,0,0,0,0,0,0,0,0,0,2.3944,2.3943,0,2.3855,2.3854,2.3853,2.3791,2.3791,2.379,2.379,2.3697,2.3695,2.3693,0,0,0,0,0,0,0,0,0,0,0,0,0,0,0,0,0,0,0,0,0,0,0,0,0,0,0,0,0,0,0,0,0,0,0,0,0,0,0,0,0,0,0,0,0,0,0,0,0,0,0,0,0,0,0,0,0,0,0,0,0,0,0,0,0,0,0,0,0]}]]]